OBJECT B, 68417

Orbit data source: Space-Track

You're viewing an Uncataloged Satellite

Recently launched and/or uncataloged satellites may have evolving metadata. Metadata may include but not limited to: Owner, Maufacturer, Bus, Motor, and Mission.

OBJECT B, 68417 is a satellite in SSO that was launched on Mon, 30 Mar 2026 UTC via an FALCON 9 launch vehicle from the Air Force Western Test Range (AFWTR). Unknown objects in Earth's orbit typically refer to objects detected orbiting the Earth but have not yet been identified or cataloged. These objects could be anything from previously untracked satellites, spent rocket stages, debris from satellite collisions, or even natural meteoroids temporarily captured by Earth's gravity.

Loading next visibility...
Identifier
68417, 2026-067B
Orbit
SSO
Country
Flag of TBDTBD
Related business
Manufacturer
COSMW
Mission
Operational spacecraft
Bus & Motor
CUBESAT 3U, Unknown motor
Mass
5 kg wet, 5 kg dry
Launch date (UTC)
2026-03-30 (3 months ago)
Launch vehicle
FALCON 9
Launch site
Air Force Western Test Range (AFWTR)
Object type
Unknown
Shape & HBR
Unknown shape, 1.1 m
Radar Cross Section
Medium (>0.1 m² and <1 m²)

Expand to show TLE details & history
Last TLE update: 2 days ago

TLE from 2 days ago
0 OBJECT B
1 68417U 26067B   26170.86158908  .00005090  00000-0  24354-3 0  9993
2 68417  97.4570 129.4189 0000163 167.0681 193.0558 15.19420860 12351
Epoch: 2026-06-19T20:40Z
TLE epoch observation values (Epoch: 2026-06-19T20:40:41.296Z)
Latitude
-0.00001°
Longitude
-88.83765°
Altitude
510.787 km
Speed
7.608 km/s
True Right ascension
08h 37m 40s
True Declination
0° 00' 00"
Sunlit
Object was in daylight at epoch
Visualization orbit readout
Latitude
Unknown
Longitude
Unknown
Altitude
Unknown
Speed
Unknown
Apparent Right ascension
Unknown
Apparent Declination
Unknown
Sunlit
N/A
Visualization observer readout
Local Sidereal Time
08:58:13
Azimuth
Unknown
Elevation
Unknown
Doppler factor
Unknown
Orbital elements
Apogee altitude
504.671 km
Perigee altitude
504.446 km
Semi-major axis
6,882.696 km
Eccentricity
0.00002
Inclination
97.457°
RAAN
129.4189°
Arg. of periapsis
167.0681°
True anomaly
193.05538°
Mean anomaly
193.0558°
Eccentric anomaly
193.05559°
Mean motion
3.80107 °/min
Orbital period
94.71 mins
BSTAR
0.00024354
Loading maneuver chart data...
Computing Atmospheric mass density...
Loading historical data...
Loading historical data...
Loading historical data...
Loading historical data...
Loading historical data...
Loading historical data...
Loading historical data...

Documentation

Showing up to 5 results
|